EN

Hourly Weather Dzierawy

Today, 31 October, Saturday

Time Temperature Precipitation Wind Pressure Humidity
00:00 +9°C° 0 mm 1 mps 755 mmHg 94%
01:00 +9°C° 0 mm 1 mps 755 mmHg 94%
02:00 +9°C° 0 mm 1 mps 756 mmHg 95%
03:00 +9°C° 0 mm 1 mps 756 mmHg 95%
04:00 +7°C° 0 mm 2 mps 757 mmHg 95%
05:00 +8°C° 0 mm 1 mps 757 mmHg 95%
06:00 +7°C° 0 mm 1 mps 757 mmHg 95%
07:00 +7°C° 0 mm 1 mps 758 mmHg 95%
08:00 +8°C° 0 mm 1 mps 758 mmHg 90%
09:00 +9°C° 0 mm 1 mps 758 mmHg 85%
10:00 +10°C° 0 mm 0 mps 759 mmHg 79%
11:00 +10°C° 0 mm 0 mps 759 mmHg 75%
12:00 +11°C° 0 mm 0 mps 759 mmHg 71%
13:00 +12°C° 0 mm 0 mps 759 mmHg 67%
14:00 +12°C° 0 mm 1 mps 759 mmHg 70%
15:00 +11°C° 0 mm 1 mps 759 mmHg 73%
16:00 +11°C° 0 mm 1 mps 759 mmHg 75%
17:00 +10°C° 0 mm 1 mps 759 mmHg 77%
18:00 +8°C° 0 mm 2 mps 759 mmHg 79%
19:00 +8°C° 0 mm 2 mps 759 mmHg 82%
20:00 +8°C° 0 mm 2 mps 759 mmHg 82%
21:00 +7°C° 0 mm 2 mps 759 mmHg 83%
22:00 +7°C° 0 mm 3 mps 759 mmHg 84%
23:00 +7°C° 0 mm 3 mps 759 mmHg 85%

Tomorrow, 1 November, Sunday

Time Temperature Precipitation Wind Pressure Humidity
00:00 +5°C° 0 mm 3 mps 759 mmHg 86%
01:00 +5°C° 0 mm 3 mps 758 mmHg 87%
02:00 +5°C° 0 mm 3 mps 758 mmHg 87%
03:00 +5°C° 0 mm 3 mps 757 mmHg 88%
04:00 +5°C° 0 mm 3 mps 757 mmHg 88%
05:00 +5°C° 0 mm 4 mps 757 mmHg 88%
06:00 +4°C° 0 mm 4 mps 757 mmHg 87%
07:00 +4°C° 0 mm 4 mps 757 mmHg 86%
08:00 +6°C° 0 mm 4 mps 756 mmHg 80%
09:00 +7°C° 0 mm 4 mps 756 mmHg 75%
10:00 +9°C° 0 mm 5 mps 756 mmHg 69%
11:00 +10°C° 0 mm 4 mps 755 mmHg 70%
12:00 +11°C° 0 mm 4 mps 755 mmHg 71%
13:00 +12°C° 0 mm 4 mps 754 mmHg 72%
14:00 +12°C° 0 mm 4 mps 754 mmHg 76%
15:00 +12°C° 0 mm 3 mps 753 mmHg 81%
16:00 +11°C° 0 mm 3 mps 753 mmHg 86%
17:00 +11°C° 0.6 mm 3 mps 753 mmHg 89%
18:00 +11°C° 0.6 mm 3 mps 753 mmHg 91%
19:00 +11°C° 0.6 mm 3 mps 753 mmHg 94%
20:00 +11°C° 0.3 mm 4 mps 752 mmHg 94%
21:00 +11°C° 0.3 mm 4 mps 752 mmHg 94%
22:00 +11°C° 0.3 mm 4 mps 752 mmHg 93%
23:00 +11°C° 0.2 mm 4 mps 752 mmHg 93%

Day after tomorrow, 2 November, Monday

Time Temperature Precipitation Wind Pressure Humidity
00:00 +11°C° 0.2 mm 4 mps 752 mmHg 93%
01:00 +11°C° 0.2 mm 4 mps 751 mmHg 92%
02:00 +11°C° 0.3 mm 4 mps 751 mmHg 92%
03:00 +11°C° 0.3 mm 4 mps 751 mmHg 93%
04:00 +12°C° 0.3 mm 5 mps 751 mmHg 93%
05:00 +12°C° 0 mm 4 mps 751 mmHg 93%
06:00 +12°C° 0 mm 4 mps 752 mmHg 93%
07:00 +12°C° 0 mm 4 mps 752 mmHg 94%
08:00 +12°C° 0 mm 4 mps 752 mmHg 90%
09:00 +13°C° 0 mm 4 mps 752 mmHg 87%
10:00 +13°C° 0 mm 3 mps 752 mmHg 84%
11:00 +13°C° 0 mm 3 mps 753 mmHg 84%
12:00 +13°C° 0 mm 3 mps 753 mmHg 85%
13:00 +13°C° 0 mm 3 mps 753 mmHg 86%
14:00 +13°C° 0.1 mm 3 mps 753 mmHg 89%
15:00 +13°C° 0.1 mm 3 mps 753 mmHg 92%
16:00 +13°C° 0.1 mm 3 mps 752 mmHg 95%
17:00 +13°C° 0 mm 3 mps 753 mmHg 94%
18:00 +13°C° 0 mm 3 mps 753 mmHg 94%
19:00 +13°C° 0 mm 4 mps 753 mmHg 94%
20:00 +14°C° 0 mm 4 mps 753 mmHg 93%
21:00 +14°C° 0 mm 4 mps 753 mmHg 92%
22:00 +14°C° 0 mm 4 mps 753 mmHg 91%
23:00 +14°C° 0 mm 4 mps 753 mmHg 91%

3 November, Tuesday

Time Temperature Precipitation Wind Pressure Humidity
00:00 +14°C° 0 mm 4 mps 753 mmHg 91%
01:00 +14°C° 0 mm 4 mps 753 mmHg 91%
02:00 +14°C° 0 mm 4 mps 753 mmHg 91%
03:00 +14°C° 0 mm 3 mps 753 mmHg 91%
04:00 +14°C° 0 mm 3 mps 753 mmHg 91%
05:00 +14°C° 0 mm 3 mps 754 mmHg 91%
06:00 +13°C° 0 mm 3 mps 754 mmHg 92%
07:00 +13°C° 0 mm 3 mps 754 mmHg 93%
08:00 +13°C° 0 mm 4 mps 755 mmHg 89%
09:00 +14°C° 0 mm 5 mps 756 mmHg 84%
10:00 +14°C° 0 mm 6 mps 756 mmHg 80%
11:00 +13°C° 0 mm 6 mps 757 mmHg 75%
12:00 +13°C° 0 mm 5 mps 757 mmHg 71%
13:00 +13°C° 0 mm 5 mps 758 mmHg 66%
14:00 +12°C° 0 mm 5 mps 758 mmHg 67%
15:00 +12°C° 0 mm 4 mps 759 mmHg 69%
16:00 +12°C° 0 mm 3 mps 759 mmHg 70%
17:00 +11°C° 0 mm 3 mps 760 mmHg 72%
18:00 +10°C° 0 mm 3 mps 760 mmHg 74%
19:00 +10°C° 0 mm 3 mps 761 mmHg 75%
20:00 +9°C° 0 mm 2 mps 761 mmHg 76%
21:00 +9°C° 0 mm 2 mps 761 mmHg 76%
22:00 +9°C° 0 mm 2 mps 761 mmHg 77%
23:00 +9°C° 0 mm 2 mps 761 mmHg 77%

4 November, Wednesday

Time Temperature Precipitation Wind Pressure Humidity
00:00 +9°C° 0 mm 2 mps 761 mmHg 78%
01:00 +9°C° 0 mm 2 mps 761 mmHg 78%
02:00 +9°C° 0 mm 2 mps 761 mmHg 79%
03:00 +8°C° 0 mm 2 mps 761 mmHg 79%
04:00 +8°C° 0 mm 2 mps 762 mmHg 80%
05:00 +8°C° 0 mm 2 mps 762 mmHg 80%
06:00 +8°C° 0 mm 2 mps 762 mmHg 79%
07:00 +8°C° 0 mm 2 mps 762 mmHg 78%
08:00 +9°C° 0 mm 3 mps 763 mmHg 74%
09:00 +9°C° 0 mm 3 mps 763 mmHg 70%
10:00 +10°C° 0 mm 4 mps 763 mmHg 66%
11:00 +10°C° 0 mm 4 mps 763 mmHg 63%
12:00 +11°C° 0 mm 3 mps 763 mmHg 61%
13:00 +11°C° 0 mm 3 mps 763 mmHg 59%
14:00 +10°C° 0 mm 3 mps 763 mmHg 62%
15:00 +10°C° 0 mm 2 mps 763 mmHg 66%
16:00 +10°C° 0 mm 1 mps 763 mmHg 69%
17:00 +9°C° 0 mm 1 mps 764 mmHg 71%
18:00 +9°C° 0 mm 1 mps 764 mmHg 73%
19:00 +7°C° 0 mm 0 mps 764 mmHg 75%
20:00 +7°C° 0 mm 0 mps 765 mmHg 76%
21:00 +6°C° 0 mm 0 mps 765 mmHg 77%
22:00 +6°C° 0 mm 0 mps 765 mmHg 79%
23:00 +7°C° 0 mm 1 mps 765 mmHg 80%

5 November, Thursday

Time Temperature Precipitation Wind Pressure Humidity
00:00 +7°C° 0 mm 1 mps 766 mmHg 81%
01:00 +6°C° 0 mm 1 mps 766 mmHg 82%
02:00 +6°C° 0 mm 1 mps 766 mmHg 82%
03:00 +6°C° 0 mm 1 mps 766 mmHg 83%
04:00 +6°C° 0 mm 1 mps 766 mmHg 84%
05:00 +6°C° 0 mm 1 mps 766 mmHg 84%
06:00 +6°C° 0 mm 1 mps 767 mmHg 84%
07:00 +5°C° 0 mm 0 mps 767 mmHg 84%
08:00 +7°C° 0 mm 1 mps 767 mmHg 79%
09:00 +8°C° 0 mm 1 mps 767 mmHg 75%
10:00 +9°C° 0 mm 1 mps 768 mmHg 71%
11:00 +10°C° 0 mm 1 mps 768 mmHg 67%
12:00 +10°C° 0 mm 1 mps 768 mmHg 63%
13:00 +11°C° 0 mm 1 mps 768 mmHg 59%
14:00 +10°C° 0 mm 1 mps 768 mmHg 63%
15:00 +9°C° 0 mm 1 mps 768 mmHg 67%
16:00 +8°C° 0 mm 2 mps 768 mmHg 71%
17:00 +8°C° 0 mm 1 mps 768 mmHg 74%
18:00 +7°C° 0 mm 1 mps 768 mmHg 76%
19:00 +7°C° 0 mm 1 mps 768 mmHg 79%
20:00 +5°C° 0 mm 2 mps 769 mmHg 81%
21:00 +5°C° 0 mm 2 mps 769 mmHg 83%
22:00 +5°C° 0 mm 2 mps 769 mmHg 85%
23:00 +4°C° 0 mm 2 mps 769 mmHg 87%
Show more